Time,TemperatureF,DewpointF,PressureIn,WindDirection,WindDirectionDegrees,WindSpeedMPH,WindSpeedGustMPH,Humidity,HourlyPrecipIn,Conditions,Clouds,dailyrainin,SoftwareType,DateUTC
2013-08-17 00:23:00,58.0,56.0,-100.00,ESE,110,0.0,0.0,94,0.00,,,-99.99,,2013-08-17 04:23:00,
2013-08-17 00:53:00,57.0,56.0,-100.00,ESE,110,0.0,0.0,95,0.00,,,-99.99,,2013-08-17 04:53:00,
2013-08-17 01:22:00,57.0,56.0,-100.00,ESE,110,0.0,0.0,95,0.00,,,-99.99,,2013-08-17 05:22:00,
2013-08-17 01:51:00,57.0,56.0,-100.00,ESE,110,0.0,0.0,95,0.00,,,-99.99,,2013-08-17 05:51:00,
2013-08-17 02:21:00,56.0,55.0,-100.00,ESE,110,0.0,0.0,96,0.00,,,-99.99,,2013-08-17 06:21:00,
2013-08-17 02:32:00,56.0,55.0,-100.00,ESE,110,0.0,0.0,96,0.00,,,-99.99,,2013-08-17 06:32:00,
2013-08-17 02:42:00,56.0,55.0,-100.00,ESE,110,0.0,0.0,96,0.00,,,-99.99,,2013-08-17 06:42:00,
2013-08-17 02:51:00,56.0,55.0,-100.00,East,95,0.0,0.0,95,0.00,,,-99.99,,2013-08-17 06:51:00,
2013-08-17 03:22:00,55.0,54.0,-100.00,East,95,0.0,0.0,96,0.00,,,-99.99,,2013-08-17 07:22:00,
2013-08-17 03:52:00,55.0,54.0,-100.00,ESE,110,0.0,1.0,96,0.00,,,-99.99,,2013-08-17 07:52:00,
2013-08-17 04:21:00,55.0,54.0,-100.00,ESE,105,0.0,0.0,96,0.00,,,-99.99,,2013-08-17 08:21:00,
2013-08-17 04:52:00,55.0,54.0,-100.00,ESE,110,0.0,0.0,96,0.00,,,-99.99,,2013-08-17 08:52:00,
2013-08-17 05:21:00,55.0,54.0,-100.00,ESE,115,0.0,0.0,96,0.00,,,-99.99,,2013-08-17 09:21:00,
2013-08-17 05:53:00,54.0,53.0,-100.00,ESE,115,0.0,0.0,96,0.00,,,-99.99,,2013-08-17 09:53:00,
2013-08-17 06:23:00,54.0,53.0,-100.00,ESE,115,0.0,0.0,96,0.00,,,-99.99,,2013-08-17 10:23:00,
2013-08-17 06:52:00,54.0,53.0,-100.00,ESE,115,0.0,0.0,96,0.00,,,-99.99,,2013-08-17 10:52:00,
2013-08-17 07:22:00,54.0,53.0,-100.00,ESE,115,0.0,0.0,96,0.00,,,-99.99,,2013-08-17 11:22:00,
2013-08-17 07:52:00,54.0,53.0,-100.00,ESE,115,0.0,0.0,96,0.00,,,-99.99,,2013-08-17 11:52:00,
2013-08-17 08:21:00,56.0,55.0,-100.00,ESE,115,0.0,0.0,96,0.00,,,-99.99,,2013-08-17 12:21:00,
2013-08-17 08:52:00,58.0,57.0,-100.00,East,90,0.0,1.0,96,0.00,,,-99.99,,2013-08-17 12:52:00,
2013-08-17 09:21:00,60.0,59.0,-100.00,NE,55,2.0,7.0,96,0.00,,,-99.99,,2013-08-17 13:21:00,
2013-08-17 09:52:00,63.0,62.0,-100.00,NNE,30,2.0,11.0,96,0.00,,,-99.99,,2013-08-17 13:52:00,
2013-08-17 10:21:00,67.0,62.0,-100.00,NE,40,4.0,9.0,85,0.00,,,-99.99,,2013-08-17 14:21:00,
2013-08-17 10:52:00,71.0,58.0,-100.00,NNE,15,4.0,12.0,62,0.00,,,-99.99,,2013-08-17 14:52:00,
2013-08-17 11:22:00,75.0,58.0,-100.00,ENE,60,4.0,9.0,56,0.00,,,-99.99,,2013-08-17 15:22:00,
2013-08-17 11:53:00,76.0,58.0,-100.00,NNE,25,4.0,8.0,53,0.00,,,-99.99,,2013-08-17 15:53:00,
2013-08-17 12:23:00,77.0,58.0,-100.00,NE,50,6.0,9.0,51,0.00,,,-99.99,,2013-08-17 16:23:00,
2013-08-17 12:53:00,76.0,58.0,-100.00,NE,40,2.0,9.0,52,0.00,,,-99.99,,2013-08-17 16:53:00,
2013-08-17 13:23:00,78.0,59.0,-100.00,ENE,65,6.0,9.0,51,0.00,,,-99.99,,2013-08-17 17:23:00,
2013-08-17 13:52:00,79.0,59.0,-100.00,NE,50,4.0,9.0,50,0.00,,,-99.99,,2013-08-17 17:52:00,
2013-08-17 14:21:00,79.0,59.0,-100.00,NE,50,6.0,9.0,50,0.00,,,-99.99,,2013-08-17 18:21:00,
2013-08-17 14:52:00,80.0,58.0,-100.00,NE,35,6.0,9.0,47,0.00,,,-99.99,,2013-08-17 18:52:00,
2013-08-17 15:21:00,82.0,58.0,-100.00,East,80,3.0,7.0,43,0.00,,,-99.99,,2013-08-17 19:21:00,
2013-08-17 15:52:00,81.0,58.0,-100.00,NE,55,3.0,7.0,44,0.00,,,-99.99,,2013-08-17 19:52:00,
2013-08-17 16:21:00,80.0,58.0,-100.00,NE,55,1.0,9.0,48,0.00,,,-99.99,,2013-08-17 20:21:00,
2013-08-17 16:52:00,81.0,60.0,-100.00,NE,50,4.0,7.0,47,0.00,,,-99.99,,2013-08-17 20:52:00,
2013-08-17 17:22:00,80.0,59.0,-100.00,NE,40,2.0,10.0,48,0.00,,,-99.99,,2013-08-17 21:22:00,
2013-08-17 17:53:00,77.0,60.0,-100.00,ENE,60,5.0,9.0,55,0.00,,,-99.99,,2013-08-17 21:53:00,
2013-08-17 18:23:00,77.0,60.0,-100.00,NNE,20,5.0,11.0,55,0.00,,,-99.99,,2013-08-17 22:23:00,
2013-08-17 18:52:00,76.0,58.0,-100.00,NE,45,4.0,11.0,55,0.00,,,-99.99,,2013-08-17 22:52:00,
2013-08-17 19:22:00,75.0,58.0,-100.00,NNE,30,4.0,8.0,54,0.00,,,-99.99,,2013-08-17 23:22:00,
2013-08-17 19:52:00,73.0,58.0,-100.00,ENE,65,2.0,7.0,58,0.00,,,-99.99,,2013-08-17 23:52:00,
2013-08-17 20:21:00,72.0,58.0,-100.00,NNE,20,4.0,6.0,61,0.00,,,-99.99,,2013-08-18 00:21:00,
2013-08-17 20:52:00,70.0,59.0,-100.00,North,10,2.0,7.0,67,0.00,,,-99.99,,2013-08-18 00:52:00,
2013-08-17 21:21:00,68.0,60.0,-100.00,NE,40,0.0,5.0,75,0.00,,,-99.99,,2013-08-18 01:21:00,
2013-08-17 21:52:00,66.0,61.0,-100.00,NE,50,1.0,2.0,83,0.00,,,-99.99,,2013-08-18 01:52:00,
2013-08-17 22:21:00,65.0,62.0,-100.00,NE,50,0.0,0.0,87,0.00,,,-99.99,,2013-08-18 02:21:00,
2013-08-17 22:52:00,65.0,62.0,-100.00,NE,35,1.0,3.0,90,0.00,,,-99.99,,2013-08-18 02:52:00,
2013-08-17 23:21:00,64.0,62.0,-100.00,NE,40,1.0,2.0,93,0.00,,,-99.99,,2013-08-18 03:21:00,
2013-08-17 23:53:00,64.0,62.0,-100.00,NNE,15,0.0,0.0,94,0.00,,,-99.99,,2013-08-18 03:53:00,